Location: Newark
(49.8969°N, 3.3422°E)
Time: 10:34:02
(UTC+00:00)

A-11 Canister half - Pass Details

Date: 28 January 2020
Orbit: 1517 x 1683 km, 47.2° (Epoch: 26 February)

Event Time Altitude Azimuth Distance (km) Brightness Sun altitude
Rises 21:10:48 0° 201° (SSW) 4,775 - -43.8°
Reaches altitude 10° 21:14:28 10° 190° (S) 3,767 - -44.3°
Maximum altitude 21:22:04 28° 136° (SE) 2,581 - -45.4°
Drops below altitude 10° 21:29:31 10° 82° (E) 3,697 - -46.4°
Sets 21:33:04 0° 72° (ENE) 4,672 - -46.9°
